Starlink 5699

operational
NORAD ID: 55449 Int'l Des: 2023-015 Owner: SPXS Country: US Constellation: starlink
LEOCIRCULAR

Starlink 5699について

説明を読み込み中...

リアルタイム位置

3D地球を読み込み中...

次回通過

高度履歴

Altitude vs Time

uPlot chart will show altitude changes over time

軌道要素

1 55449U 23015A 25304.02264212 .00001349 00000-0 11488-3 0 9993
2 55449 43.0036 311.0015 0001117 266.7635 93.3080 15.02547118152185
Epoch: Oct 31, 2025 • Age: 13 hours

現在のステータス

高度 558.6 km
速度 7.58 km/s
衛星直下点 1.96°N, 70.31°E
打ち上げ日 Feb 2, 2023
運用期間 2.7 years
タイプ internet

技術仕様

分類 Payload
質量 305.00 kg
乾燥質量 290.00 kg
総質量 305.00 kg
長さ 0.20 m
直径 2.80 m
スパン 9.00 m
形状 Box + pan
製造者 SPXS
バスタイプ Starlink
フェーズステータス In Orbit
所有者/国 SPXS/US

大規模コンステレーション

Loading constellations...